Regional Weather Roundup
Issued by NWS

Home | Current Version | Previous Version | Text Only | Print | Product List | Glossary On
Versions: 1 2 3 4 5 6 7 8 9 10 11 12 13 14 15 16 17 18 19 20 21 22 23 24 25 26 27
000
ASUS46 KSEW 010010
RWRWA

WASHINGTON REGIONAL WEATHER ROUNDUP
NATIONAL WEATHER SERVICE SEATTLE WA
500 PM PDT TUE MAY 31 2016

NOTE:"FAIR" INDICATES FEW OR NO CLOUDS BELOW 12,000 FEET WITH NO
SIGNIFICANT WEATHER AND/OR OBSTRUCTIONS TO VISIBILITY.

WAZ505-507>509-010100-
SEATTLE, TACOMA, EVERETT, AND VICINITY

CITY           SKY/WX    TMP DP  RH WIND       PRES   REMARKS
EVERETT        PTSUNNY   70  50  49 VRB5      30.01F
6HR MIN TEMP:  64; 6HR MAX TEMP:  74;

BOEING FIELD   PTSUNNY   78  49  35 VRB5      29.98F
6HR MIN TEMP:  68; 6HR MAX TEMP:  79;

RENTON         PTSUNNY   77  47  34 N5        29.97F
6HR MIN TEMP:  67; 6HR MAX TEMP:  79;

SEATAC AIRPORT PTSUNNY   78  42  27 NW7       30.00F
6HR MIN TEMP:  68; 6HR MAX TEMP:  80;

JBLM-MCCHORD   PTSUNNY   82  47  29 VRB5      29.98F
6HR MIN TEMP:  69; 6HR MAX TEMP:  83;

PUYALLUP       FAIR      82  45  26 VRB3      29.99F
BREMERTON      PTSUNNY   79  50  36 NE9       30.01F
6HR MIN TEMP:  66; 6HR MAX TEMP:  81;

JBLM-FT LEWIS  PTSUNNY   81  44  27 VRB2      29.97F
6HR MIN TEMP:  69; 6HR MAX TEMP:  82;

TACOMA NARROWS PTSUNNY   76  45  33 NE8       29.98F
6HR MIN TEMP:  66; 6HR MAX TEMP:  76;

$$

WAZ001-503-506-510-514-515-010100-
NORTH INTERIOR

CITY           SKY/WX    TMP DP  RH WIND       PRES   REMARKS
BELLINGHAM     PTSUNNY   75  50  41 CALM      29.99F
6HR MIN TEMP:  67; 6HR MAX TEMP:  75;

FRIDAY HARBOR  PTSUNNY   68  50  52 SE5       30.01F
6HR MIN TEMP:  67; 6HR MAX TEMP:  74;

EASTSOUND      PTSUNNY   68  48  49 N5        29.98F
PORT ANGELES   MOSUNNY   73  38  27 VRB3      30.01F
6HR MIN TEMP:  64; 6HR MAX TEMP:  76;

EDIZ HOOK      FAIR      67  48  50 CALM      30.00F
6HR MIN TEMP:  59; 6HR MAX TEMP:  67;

PORT TOWNSEND  FAIR      70  46  43 VRB6      30.00F
NAS WHIDBEY    CLOUDY    66  52  60 W5        30.04F
6HR MIN TEMP:  61; 6HR MAX TEMP:  67;

ARLINGTON      PTSUNNY   73  50  43 NW13      30.00F
6HR MIN TEMP:  68; 6HR MAX TEMP:  77;

BURLINGTON     SUNNY     72  55  56 NW8       30.00F
$$

WAZ020-022-039-040-504-511-512-010100-
SOUTHWEST INTERIOR

CITY           SKY/WX    TMP DP  RH WIND       PRES   REMARKS
SHELTON        PTSUNNY   83  40  21 W8        29.95F
6HR MIN TEMP:  70; 6HR MAX TEMP:  83;

OLYMPIA        MOSUNNY   83  42  23 VRB3      29.97F
6HR MIN TEMP:  68; 6HR MAX TEMP:  83;

CHEHALIS       FAIR      86  50  28 VRB7      29.96F
KELSO          MOSUNNY   84  43  23 NW5       29.97F
6HR MIN TEMP:  70; 6HR MAX TEMP:  86;

VANCOUVER      SUNNY     87  40  19 NW9       29.92F
6HR MIN TEMP:  69; 6HR MAX TEMP:  87;

SCAPPOOSE, OR  SUNNY     86  41  20 E5        29.92F
6HR MIN TEMP:  72; 6HR MAX TEMP:  88;

PORTLAND, OR   MOSUNNY   88  37  16 W12       29.92F
6HR MIN TEMP:  70; 6HR MAX TEMP:  88;

$$

WAZ021-516-517-010100-
WASHINGTON COAST

CITY           SKY/WX    TMP DP  RH WIND       PRES   REMARKS
FORKS          PTSUNNY   65  47  52 NW10      30.03S
6HR MIN TEMP:  65; 6HR MAX TEMP:  72;

HOQUIAM        MOSUNNY   70  49  47 W12       30.01F HAZE
6HR MIN TEMP:  68; 6HR MAX TEMP:  74;

ASTORIA, OR    SUNNY     69  47  45 NW20      30.00S
6HR MIN TEMP:  69; 6HR MAX TEMP:  77;

$$

WAZ019-023-024-040-518-519-010100-
CASCADE MOUNTAINS AND COLUMBIA GORGE

CITY           SKY/WX    TMP DP  RH WIND       PRES   REMARKS
STAMPEDE PASS  SUNNY     70  33  25 VRB3      30.10F
6HR MIN TEMP:  65; 6HR MAX TEMP:  72;

TROUTDALE, OR  SUNNY     88  47  24 VRB5      29.91F
6HR MIN TEMP:  72; 6HR MAX TEMP:  88;

THE DALLES, OR SUNNY     88  25  10 E3        29.93F
6HR MIN TEMP:  71; 6HR MAX TEMP:  89;

$$

WAZ026-027-041>044-520-521-010100-
EAST SLOPES

CITY           SKY/WX    TMP DP  RH WIND       PRES   REMARKS
OMAK           MOSUNNY   81  33  17 S5        29.99F
6HR MIN TEMP:  70; 6HR MAX TEMP:  82;

WENATCHEE      SUNNY     81  38  21 E10       29.99F
6HR MIN TEMP:  70; 6HR MAX TEMP:  82;

ELLENSBURG     MOSUNNY   81  33  17 VRB5      30.01F
6HR MIN TEMP:  73; 6HR MAX TEMP:  84;

YAKIMA         MOSUNNY   84  33  16 SE7       30.00F
6HR MIN TEMP:  75; 6HR MAX TEMP:  85;

$$

WAZ028-034-035-010100-
COLUMBIA BASIN

CITY           SKY/WX    TMP DP  RH WIND       PRES   REMARKS
EPHRATA        SUNNY     81  35  19 E6        30.01F
6HR MIN TEMP:  73; 6HR MAX TEMP:  81;

MOSES LAKE     SUNNY     82  29  14 VRB7      30.02F
6HR MIN TEMP:  75; 6HR MAX TEMP:  82;

PASCO          SUNNY     84  41  21 NW6       29.97F
6HR MIN TEMP:  71; 6HR MAX TEMP:  86;

HERMISTON, OR  SUNNY     87  34  15 N8        29.96F
6HR MIN TEMP:  74; 6HR MAX TEMP:  87;

$$

WAZ036>038-010100-
NORTHEAST WASHINGTON

CITY           SKY/WX    TMP DP  RH WIND       PRES   REMARKS
SPOKANE GEIGER PTSUNNY   76  32  20 E7        30.06F
6HR MIN TEMP:  68; 6HR MAX TEMP:  77;

SPOKANE FELTS  SUNNY     78  35  21 E8        30.06F
6HR MIN TEMP:  69; 6HR MAX TEMP:  79;

FAIRCHILD AFB  SUNNY     74  36  24 VRB3      30.06F
6HR MIN TEMP:  67; 6HR MAX TEMP:  75;

COEURDALENE,ID SUNNY     73  37  27 CALM      30.03F
6HR MIN TEMP:  66; 6HR MAX TEMP:  75;

DEER PARK      MOSUNNY   75  34  22 VRB7      30.06F
6HR MIN TEMP:  68; 6HR MAX TEMP:  76;

$$

WAZ029>033-010100-
SOUTHEAST WASHINGTON

CITY           SKY/WX    TMP DP  RH WIND       PRES   REMARKS
PULLMAN        SUNNY     74  37  26 NE6       30.09F
6HR MIN TEMP:  67; 6HR MAX TEMP:  75;

LEWISTON, ID   SUNNY     81  36  19 NE8       30.02F
6HR MIN TEMP:  69; 6HR MAX TEMP:  81;

WALLA WALLA    SUNNY     83  38  20 NE10      29.99F
6HR MIN TEMP:  71; 6HR MAX TEMP:  83;

PENDLETON, OR  SUNNY     81  34  18 NE8       29.99F
6HR MIN TEMP:  74; 6HR MAX TEMP:  83;

$$




USA.gov is the U.S. government's official web portal to all federal, state and local government web resources and services.